Location: Unspecified
(0.0000°N, 0.0000°E)
Time: 04:04:37
(UTC+00:00)

Transit 2A - Pass Details

Date: 04 June 2019
Orbit: 593 x 966 km, 66.7° (Epoch: 26 June)

Event Time Altitude Azimuth Distance (km) Brightness Sun altitude
Rises 16:10:35 0° 302° (WNW) 3,078 10.5 24.8°
Reaches altitude 10° 16:15:09 10° 262° (W) 2,065 9.3 23.7°
Maximum altitude 16:16:01 10° 252° (WSW) 2,019 9.0 23.5°
Drops below altitude 10° 16:16:52 10° 241° (WSW) 2,034 8.8 23.3°
Sets 16:21:11 0° 200° (SSW) 2,876 8.9 22.3°
